This is the latest recevied weather packets stored in our database for station/object K1RTA. If no packets are shown the sender has not sent any weather packets the latest 10 day(s).
| Time | Temp. | Humidity | Pressure | Rain* | Wind** | Luminosity | Snow |
|---|---|---|---|---|---|---|---|
| 1788129634 | 23.89° C | 70% | 1017.3 hPa | 0 mm | - | - | - |
| 1788129334 | 23.89° C | 70% | 1017.4 hPa | 0 mm | - | - | - |
| 1788129035 | 23.89° C | 70% | 1017.4 hPa | 0 mm | - | - | - |
| 1788128735 | 24.44° C | 70% | 1017.5 hPa | 0 mm | - | - | - |
| 1788128435 | 24.44° C | 70% | 1017.6 hPa | 0 mm | - | - | - |
| 1788128133 | 24.44° C | 70% | 1017.5 hPa | 0 mm | - | - | - |
| 1788127833 | 24.44° C | 70% | 1017.7 hPa | 0 mm | - | - | - |
| 1788127535 | 24.44° C | 71% | 1017.7 hPa | 0 mm | - | - | - |
| 1788127235 | 24.44° C | 74% | 1017.8 hPa | 0 mm | - | - | - |
| 1788126935 | 24.44° C | 72% | 1017.8 hPa | 0 mm | - | - | - |
| 1788126634 | 24.44° C | 70% | 1017.8 hPa | 0 mm | - | - | - |
| 1788126334 | 25° C | 69% | 1017.7 hPa | 0 mm | - | - | - |
| 1788126034 | 25° C | 70% | 1017.7 hPa | 0 mm | - | - | - |
| 1788125734 | 25° C | 70% | 1017.6 hPa | 0 mm | - | - | - |
| 1788125434 | 25° C | 67% | 1017.6 hPa | 0 mm | - | - | - |
| 1788125135 | 25° C | 67% | 1017.6 hPa | 0 mm | - | - | - |
| 1788124834 | 25° C | 68% | 1017.8 hPa | 0 mm | - | - | - |
| 1788124534 | 25.56° C | 69% | 1017.8 hPa | 0 mm | - | - | - |
| 1788124234 | 25.56° C | 71% | 1017.9 hPa | 0 mm | - | - | - |
| 1788123934 | 25.56° C | 71% | 1017.9 hPa | 0 mm | - | - | - |
| 1788123634 | 25.56° C | 70% | 1017.7 hPa | 0 mm | - | - | - |
| 1788123334 | 25.56° C | 70% | 1017.6 hPa | 0 mm | - | - | - |
| 1788123034 | 25.56° C | 69% | 1017.7 hPa | 0 mm | - | - | - |
| 1788122734 | 25.56° C | 68% | 1017.8 hPa | 0 mm | - | - | - |
| 1788122433 | 26.11° C | 68% | 1017.8 hPa | 0 mm | - | - | - |
* Rain latest hour (hover to see other rain measurements)
** Current wind speed in m/s (hover to see current wind gust speed)